Weather History for Knoxville, IA

Change the Weather History Date:

Sunday, April 6, 2014

  Actual Average Record
Temperature  
Mean Temperature 50 °F -  
Max Temperature 60 °F 61 °F 86 °F (1991)
Min Temperature 41 °F 36 °F 10 °F (1982)
Degree Days  
Heating Degree Days 14    
Moisture  
Dew Point 32 °F    
Average Humidity 49    
Maximum Humidity 66    
Minimum Humidity 36    
Precipitation  
Precipitation 0.00 in - - ()
Sea Level Pressure  
Sea Level Pressure 29.96 in    
Wind  
Wind Speed 8 mph (SSE)    
Max Wind Speed 13 mph    
Max Gust Speed 17 mph    
Visibility 10 miles    
Events      
Averages and records for this station are not official NWS values.
T = Trace of Precipitation, MM = Missing Value Source: NWS Daily Summary

Daily Weather History Graph

Daily Weather History Graph

Search for Another Location

Airport:

Trip Planner

Search our weather history database for the weather conditions in past years. The results will help you decide how hot, cold, wet, or windy it might be!

Date:

Astronomy

Apr. 06, 2014 Rise Set
Actual Time 6:47 AM CDT 7:43 PM CDT
Civil Twilight 6:19 AM CDT 8:11 PM CDT
Nautical Twilight 5:45 AM CDT 8:44 PM CDT
Astronomical Twilight 5:11 AM CDT 9:19 PM CDT
Moon 11:46 AM CDT (4/6) 1:41 AM CDT (4/6)
Length of Visible Light 13h 51m
Length of Day
12h 55m
Waxing Crescent, 44% of the Moon is Illuminated
Apr 6
Waxing Crescent
Apr 7
First Quarter
Apr 15
Full
Apr 22
Last Quarter
Apr 29
New

Hourly Weather History & Observations

Time (CDT) Temp. Windchill Dew Point Humidity Pressure Visibility Wind Dir Wind Speed Gust Speed Precip Events Conditions
12:15 AM 41.0 °F 35.8 °F 28.4 °F 61% 30.05 in 10.0 mi SSE 8.1 mph - N/A   Mostly Cloudy
12:35 AM 41.0 °F 37.1 °F 28.4 °F 61% 30.05 in 10.0 mi South 5.8 mph - N/A   Mostly Cloudy
12:55 AM 41.0 °F 37.1 °F 28.4 °F 61% 30.05 in 10.0 mi South 5.8 mph - N/A   Overcast
1:15 AM 42.8 °F 40.1 °F 28.4 °F 57% 30.05 in 10.0 mi SSE 4.6 mph - N/A   Overcast
1:35 AM 42.8 °F 40.1 °F 30.2 °F 61% 30.05 in 10.0 mi SSE 4.6 mph - N/A   Overcast
1:55 AM 42.8 °F 39.3 °F 30.2 °F 61% 30.05 in 10.0 mi SSE 5.8 mph - N/A   Overcast
2:15 AM 42.8 °F 38.6 °F 30.2 °F 61% 30.05 in 10.0 mi SSE 6.9 mph - N/A   Overcast
2:35 AM 41.0 °F 36.4 °F 30.2 °F 65% 30.05 in 10.0 mi SSE 6.9 mph - N/A   Overcast
2:55 AM 42.8 °F 37.5 °F 30.2 °F 61% 30.04 in 10.0 mi SSE 9.2 mph - N/A   Overcast
3:15 AM 42.8 °F 37.5 °F 30.2 °F 61% 30.03 in 10.0 mi SSE 9.2 mph - N/A   Overcast
3:35 AM 41.0 °F 35.8 °F 30.2 °F 65% 30.03 in 10.0 mi SSE 8.1 mph - N/A   Overcast
3:55 AM 42.8 °F 38.0 °F 30.2 °F 61% 30.04 in 10.0 mi SSE 8.1 mph - N/A   Overcast
4:15 AM 42.8 °F 38.0 °F 32.0 °F 66% 30.04 in 10.0 mi South 8.1 mph - N/A   Overcast
4:35 AM 42.8 °F 38.6 °F 32.0 °F 66% 30.03 in 10.0 mi SSE 6.9 mph - N/A   Overcast
4:55 AM 42.8 °F 36.6 °F 32.0 °F 66% 30.03 in 10.0 mi South 11.5 mph - N/A   Overcast
5:15 AM 44.6 °F 38.8 °F 32.0 °F 61% 30.02 in 10.0 mi South 11.5 mph 17.3 mph N/A   Overcast
5:35 AM 44.6 °F 38.4 °F 32.0 °F 61% 30.02 in 10.0 mi South 12.7 mph - N/A   Overcast
5:55 AM 44.6 °F 41.4 °F 30.2 °F 57% 30.02 in 10.0 mi SSW 5.8 mph 12.7 mph N/A   Overcast
6:15 AM 44.6 °F 38.8 °F 30.2 °F 57% 30.02 in 10.0 mi SSW 11.5 mph - N/A   Overcast
6:35 AM 44.6 °F 38.8 °F 30.2 °F 57% 30.02 in 10.0 mi SSW 11.5 mph - N/A   Overcast
6:55 AM 44.6 °F 39.2 °F 32.0 °F 61% 30.03 in 10.0 mi SSW 10.4 mph 16.1 mph N/A   Overcast
7:15 AM 44.6 °F 40.2 °F 32.0 °F 61% 30.03 in 10.0 mi SSW 8.1 mph - N/A   Overcast
7:35 AM 44.6 °F 40.2 °F 32.0 °F 61% 30.03 in 10.0 mi South 8.1 mph - N/A   Mostly Cloudy
7:55 AM 44.6 °F 40.2 °F 32.0 °F 61% 30.03 in 10.0 mi South 8.1 mph - N/A   Overcast
8:15 AM 44.6 °F 39.7 °F 32.0 °F 61% 30.04 in 10.0 mi SSW 9.2 mph - N/A   Overcast
8:35 AM 44.6 °F 39.7 °F 32.0 °F 61% 30.03 in 10.0 mi South 9.2 mph - N/A   Scattered Clouds
8:55 AM 46.4 °F 41.5 °F 32.0 °F 57% 30.02 in 10.0 mi South 10.4 mph - N/A   Partly Cloudy
9:15 AM 48.2 °F - 32.0 °F 54% 30.01 in 10.0 mi South 9.2 mph - N/A   Mostly Cloudy
9:35 AM 48.2 °F - 32.0 °F 54% 30.01 in 10.0 mi South 10.4 mph - N/A   Partly Cloudy
9:55 AM 50.0 °F - 32.0 °F 50% 30.01 in 10.0 mi South 10.4 mph - N/A   Partly Cloudy
10:15 AM 51.8 °F - 32.0 °F 47% 30.00 in 10.0 mi SSW 8.1 mph - N/A   Scattered Clouds
10:35 AM 53.6 °F - 32.0 °F 44% 30.00 in 10.0 mi South 8.1 mph - N/A   Partly Cloudy
10:55 AM 53.6 °F - 32.0 °F 44% 30.00 in 10.0 mi South 9.2 mph - N/A   Partly Cloudy
11:15 AM 53.6 °F - 32.0 °F 44% 29.99 in 10.0 mi South 3.5 mph - N/A   Partly Cloudy
11:35 AM 53.6 °F - 32.0 °F 44% 29.98 in 10.0 mi SW 5.8 mph - N/A   Partly Cloudy
11:55 AM 53.6 °F - 33.8 °F 47% 29.97 in 10.0 mi WNW 6.9 mph - N/A   Scattered Clouds
12:15 PM 55.4 °F - 32.0 °F 41% 29.96 in 10.0 mi Variable 5.8 mph - N/A   Partly Cloudy
12:35 PM 57.2 °F - 33.8 °F 41% 29.95 in 10.0 mi Variable 5.8 mph - N/A   Clear
12:55 PM 59.0 °F - 33.8 °F 39% 29.94 in 10.0 mi NW 5.8 mph - N/A   Clear
1:15 PM 59.0 °F - 33.8 °F 39% 29.94 in 10.0 mi North 6.9 mph - N/A   Partly Cloudy
1:35 PM 59.0 °F - 35.6 °F 42% 29.93 in 10.0 mi NNW 6.9 mph - N/A   Partly Cloudy
1:55 PM 59.0 °F - 35.6 °F 42% 29.92 in 10.0 mi Variable 5.8 mph - N/A   Mostly Cloudy
2:15 PM 60.8 °F - 35.6 °F 39% 29.92 in 10.0 mi NE 4.6 mph - N/A   Scattered Clouds
2:35 PM 60.8 °F - 35.6 °F 39% 29.91 in 10.0 mi Calm Calm - N/A   Partly Cloudy
2:55 PM 60.8 °F - 33.8 °F 36% 29.90 in 10.0 mi Variable 4.6 mph - N/A   Clear
3:15 PM 60.8 °F - 33.8 °F 36% 29.90 in 10.0 mi South 3.5 mph 11.5 mph N/A   Clear
3:35 PM 60.8 °F - 35.6 °F 39% 29.90 in 10.0 mi SE 9.2 mph - N/A   Scattered Clouds
3:55 PM 60.8 °F - 33.8 °F 36% 29.89 in 10.0 mi East 8.1 mph - N/A   Scattered Clouds
4:15 PM 60.8 °F - 33.8 °F 36% 29.90 in 10.0 mi SE 12.7 mph - N/A   Partly Cloudy
4:35 PM 60.8 °F - 33.8 °F 36% 29.89 in 10.0 mi ESE 9.2 mph - N/A   Partly Cloudy
4:55 PM 60.8 °F - 33.8 °F 36% 29.89 in 10.0 mi ESE 8.1 mph 15.0 mph N/A   Clear
5:15 PM 60.8 °F - 33.8 °F 36% 29.89 in 10.0 mi ESE 10.4 mph 17.3 mph N/A   Clear
5:35 PM 60.8 °F - 33.8 °F 36% 29.88 in 10.0 mi ESE 12.7 mph - N/A   Mostly Cloudy
5:55 PM 60.8 °F - 33.8 °F 36% 29.88 in 10.0 mi SE 11.5 mph - N/A   Overcast
6:15 PM 59.0 °F - 33.8 °F 39% 29.88 in 10.0 mi SSE 10.4 mph - N/A   Mostly Cloudy
6:35 PM 59.0 °F - 33.8 °F 39% 29.88 in 10.0 mi SE 9.2 mph - N/A   Overcast
6:55 PM 59.0 °F - 33.8 °F 39% 29.88 in 10.0 mi SE 9.2 mph - N/A   Overcast
7:15 PM 59.0 °F - 32.0 °F 36% 29.89 in 10.0 mi SE 8.1 mph - N/A   Overcast
7:35 PM 57.2 °F - 32.0 °F 38% 29.88 in 10.0 mi SSE 6.9 mph - N/A   Overcast
7:55 PM 55.4 °F - 32.0 °F 41% 29.88 in 10.0 mi SSE 6.9 mph - N/A   Overcast
8:15 PM 55.4 °F - 32.0 °F 41% 29.88 in 10.0 mi SE 5.8 mph - N/A   Overcast
8:35 PM 53.6 °F - 32.0 °F 44% 29.88 in 10.0 mi SE 6.9 mph - N/A   Mostly Cloudy
8:55 PM 53.6 °F - 32.0 °F 44% 29.88 in 10.0 mi SE 6.9 mph - N/A   Mostly Cloudy
9:15 PM 53.6 °F - 32.0 °F 44% 29.89 in 10.0 mi SE 6.9 mph - N/A   Scattered Clouds
9:35 PM 51.8 °F - 32.0 °F 47% 29.88 in 10.0 mi ESE 6.9 mph - N/A   Clear
9:55 PM 51.8 °F - 32.0 °F 47% 29.88 in 10.0 mi SE 6.9 mph - N/A   Clear
10:15 PM 51.8 °F - 32.0 °F 47% 29.88 in 10.0 mi SE 5.8 mph - N/A   Clear
10:35 PM 51.8 °F - 32.0 °F 47% 29.88 in 10.0 mi ESE 4.6 mph - N/A   Clear
10:55 PM 50.0 °F - 32.0 °F 50% 29.88 in 10.0 mi ESE 4.6 mph - N/A   Mostly Cloudy
11:15 PM 50.0 °F - 32.0 °F 50% 29.88 in 10.0 mi ESE 4.6 mph - N/A   Overcast
11:35 PM 50.0 °F - 32.0 °F 50% 29.88 in 10.0 mi East 4.6 mph - N/A   Overcast
11:55 PM 50.0 °F - 32.0 °F 50% 29.88 in 10.0 mi ESE 5.8 mph - N/A   Overcast